This is the latest recevied weather packets stored in our database for station/object KB3VSP. If no packets are shown the sender has not sent any weather packets the latest 10 day(s).
| Time | Temp. | Humidity | Pressure | Rain* | Wind** | Luminosity | Snow |
|---|---|---|---|---|---|---|---|
| 1777944007 | 18.89° C | 62% | 1007.8 hPa | 0 mm | - | 0 W/m² | - |
| 1777943703 | 18.89° C | 62% | 1007.7 hPa | 0 mm | - | 0 W/m² | - |
| 1777943400 | 18.89° C | 62% | 1007.4 hPa | 0 mm | - | 0 W/m² | - |
| 1777943095 | 18.89° C | 62% | 1007.7 hPa | 0 mm | - | 0 W/m² | - |
| 1777942792 | 18.89° C | 62% | 1007.2 hPa | 0 mm | - | 0 W/m² | - |
| 1777942489 | 19.44° C | 62% | 1007.2 hPa | 0 mm | - | 0 W/m² | - |
| 1777942186 | 19.44° C | 62% | 1007.1 hPa | 0 mm | - | 0 W/m² | - |
| 1777941883 | 19.44° C | 61% | 1007.2 hPa | 0 mm | - | 0 W/m² | - |
| 1777941580 | 19.44° C | 62% | 1007.3 hPa | 0 mm | - | 0 W/m² | - |
| 1777941277 | 19.44° C | 62% | 1007.2 hPa | 0 mm | - | 0 W/m² | - |
| 1777940973 | 19.44° C | 61% | 1007 hPa | 0 mm | - | 0 W/m² | - |
| 1777940669 | 19.44° C | 62% | 1006.9 hPa | 0 mm | - | 0 W/m² | - |
| 1777940368 | 19.44° C | 62% | 1006.8 hPa | 0 mm | - | 0 W/m² | - |
| 1777940065 | 19.44° C | 62% | 1007.1 hPa | 0 mm | - | 0 W/m² | - |
| 1777939762 | 19.44° C | 63% | 1006.8 hPa | 0 mm | - | 1 W/m² | - |
| 1777939460 | 19.44° C | 64% | 1007 hPa | 0 mm | - | 5 W/m² | - |
| 1777939156 | 19.44° C | 64% | 1006.9 hPa | 0 mm | - | 6 W/m² | - |
| 1777938854 | 19.44° C | 66% | 1006.8 hPa | 0 mm | - | 8 W/m² | - |
| 1777938550 | 19.44° C | 67% | 1006.9 hPa | 0 mm | - | 9 W/m² | - |
| 1777938248 | 18.89° C | 67% | 1006.8 hPa | 0 mm | - | 12 W/m² | - |
| 1777937944 | 18.89° C | 68% | 1006.8 hPa | 0 mm | - | 14 W/m² | - |
| 1777937639 | 18.89° C | 69% | 1007 hPa | 0 mm | - | 16 W/m² | - |
| 1777937336 | 18.89° C | 70% | 1006.8 hPa | 0 mm | - | 15 W/m² | - |
| 1777937034 | 18.89° C | 69% | 1006.8 hPa | 0 mm | - | 24 W/m² | - |
| 1777936730 | 19.44° C | 68% | 1007.1 hPa | 0 mm | - | 32 W/m² | - |
* Rain latest hour (hover to see other rain measurements)
** Current wind speed in m/s (hover to see current wind gust speed)